Weather History for KBNO - May, 2013

Change the Weather History Date:

Thursday, May 9, 2013

  Actual Average Record
Temperature  
Mean Temperature 61 °F 50 °F  
Max Temperature 80 °F 64 °F 85 °F (1940)
Min Temperature 42 °F 35 °F 21 °F (1999)
Degree Days  
Heating Degree Days 4 16  
Month to date heating degree days 105 151  
Since 1 July heating degree days 6946 7191  
Cooling Degree Days 0 0  
Month to date cooling degree days 0 0  
Year to date cooling degree days 0 0  
Growing Degree Days 10 (Base 50)    
Moisture  
Dew Point 43 °F    
Average Humidity 58    
Maximum Humidity 96    
Minimum Humidity 20    
Precipitation  
Precipitation T in 0.04 in 0.45 in (1989)
Month to date precipitation 0.03 0.32  
Year to date precipitation 1.34 4.55  
Sea Level Pressure  
Sea Level Pressure 30.11 in    
Wind  
Wind Speed 7 mph (West)    
Max Wind Speed 21 mph    
Max Gust Speed 26 mph    
Visibility 10 miles    
Events Rain    
T = Trace of Precipitation, MM = Missing Value Source: NWS Daily Summary

Daily Weather History Graph

Daily Weather History Graph

Search for Another Location

Airport or City:

Trip Planner

Search our weather history database for the weather conditions in past years. The results will help you decide how hot, cold, wet, or windy it might be!

Date:

Astronomy

May. 09, 2013 Rise Set
Actual Time 5:37 AM PDT 8:07 PM PDT
Civil Twilight 5:05 AM PDT 8:40 PM PDT
Nautical Twilight 4:24 AM PDT 9:20 PM PDT
Astronomical Twilight 3:39 AM PDT 10:06 PM PDT
Moon 5:25 AM PDT (5/9) 8:07 PM PDT (5/9)
Length of Visible Light 15h 35m
Length of Day
14h 30m
Waning Crescent, 0% of the Moon is Illuminated
May 9
Waning Crescent
May 9
New
May 17
First Quarter
May 24
Full
May 31
Last Quarter

Hourly Weather History & Observations

Time (PDT) Temp. Windchill Dew Point Humidity Pressure Visibility Wind Dir Wind Speed Gust Speed Precip Events Conditions
12:48 AM 53.6 °F - 48.2 °F 82% 30.15 in 9.0 mi South 16.1 mph - 0.02 in Rain Light Rain
12:53 AM 53.1 °F - 48.0 °F 83% 30.05 in 10.0 mi SSW 18.4 mph - 0.02 in Rain Light Rain
1:00 AM 53.6 °F - 46.4 °F 77% 30.14 in 10.0 mi SSW 11.5 mph - 0.00 in Rain Light Rain
1:53 AM 52.0 °F - 46.9 °F 83% 30.07 in 10.0 mi NNW 6.9 mph - 0.00 in   Partly Cloudy
2:53 AM 50.0 °F - 45.0 °F 83% 30.09 in 10.0 mi Calm Calm - N/A   Mostly Cloudy
3:53 AM 50.0 °F - 44.1 °F 80% 30.09 in 10.0 mi NW 8.1 mph - N/A   Scattered Clouds
4:53 AM 44.1 °F 42.5 °F 42.1 °F 93% 30.11 in 10.0 mi SSW 3.5 mph - N/A   Clear
5:53 AM 42.1 °F - 41.0 °F 96% 30.11 in 10.0 mi Calm Calm - N/A   Clear
6:53 AM 48.9 °F - 45.0 °F 86% 30.11 in 10.0 mi Calm Calm - N/A   Clear
7:53 AM 53.1 °F - 48.0 °F 83% 30.14 in 10.0 mi Calm Calm - N/A   Clear
8:53 AM 59.0 °F - 48.9 °F 69% 30.13 in 10.0 mi Calm Calm - N/A   Clear
9:53 AM 63.0 °F - 48.0 °F 58% 30.14 in 10.0 mi Calm Calm - N/A   Clear
10:53 AM 69.1 °F - 48.9 °F 49% 30.14 in 10.0 mi Variable 3.5 mph - N/A   Clear
11:53 AM 72.0 °F - 45.0 °F 38% 30.11 in 10.0 mi East 5.8 mph - N/A   Clear
12:53 PM 75.9 °F - 43.0 °F 31% 30.09 in 10.0 mi Variable 4.6 mph - N/A   Clear
1:53 PM 73.9 °F - 42.1 °F 32% 30.08 in 10.0 mi West 10.4 mph - N/A   Scattered Clouds
2:53 PM 73.9 °F - 41.0 °F 30% 30.08 in 10.0 mi NW 17.3 mph 26.5 mph N/A   Partly Cloudy
3:53 PM 78.1 °F - 43.0 °F 29% 30.05 in 10.0 mi WNW 16.1 mph 20.7 mph N/A   Clear
4:53 PM 80.1 °F - 36.0 °F 20% 30.06 in 10.0 mi WNW 13.8 mph 17.3 mph N/A   Clear
5:53 PM 75.9 °F - 37.0 °F 24% 30.08 in 10.0 mi WNW 18.4 mph - N/A   Clear
6:53 PM 75.9 °F - 34.0 °F 22% 30.06 in 10.0 mi NNW 11.5 mph - N/A   Scattered Clouds
7:53 PM 66.0 °F - 41.0 °F 40% 30.10 in 10.0 mi South 5.8 mph - N/A   Clear
8:53 PM 63.0 °F - 39.0 °F 41% 30.12 in 10.0 mi West 4.6 mph - N/A   Clear
9:53 PM 57.0 °F - 41.0 °F 55% 30.14 in 10.0 mi West 8.1 mph - N/A   Clear
10:53 PM 55.9 °F - 39.0 °F 53% 30.13 in 10.0 mi NW 5.8 mph - N/A   Clear
11:53 PM 53.1 °F - 39.0 °F 59% 30.14 in 10.0 mi WNW 10.4 mph - N/A   Clear